[[{"header":{"parameterUnit":"m.s-1","parameterCategory":1,"la1":30.2991,"la2":30.254,"lo1":-89.0895,"lo2":-89.0444,"dy":0.0017,"dx":0.0017,"nx":28,"ny":28,"refTime":"2024-03-25T21:00:00:Z","depth":0,"parameterNumber":2,"parameterNumberName":"U-component_of_WINDS"},"data":[0,0,0,0,0,0,0,0,0,0,0,0,0,0,0,0,0,0,0,0,0,0,0,0,0,0,0,0,0,0,0,0,0,0,0,0,0,0,0,0,0,0,0,0,0,0,0,0,0,0,0,0,0,0,0,0,0,0,-6.7797,-6.7798,0,-6.7953,-6.7955,-6.7956,-6.7992,-6.7991,-6.799,-6.7988,-6.8151,-6.8156,-6.8161,0,0,0,0,0,0,0,0,0,0,0,0,0,-6.7532,-6.7537,-6.7796,-6.7798,-6.78,-6.7953,-6.7955,-6.7957,-6.7992,-6.7991,-6.7989,-6.7988,-6.8149,-6.8155,-6.8162,0,0,0,0,0,0,0,0,0,0,0,0,0,-6.7664,-6.7538,-6.7796,-6.7836,-6.7841,-6.7952,-6.7955,-6.7957,-6.7992,-6.7991,-6.7989,-6.7987,-6.8147,-6.8154,-6.8162,-6.8245,0,0,-6.8187,-6.819,0,0,0,0,0,0,0,0,-6.7656,-6.7673,-6.7828,-6.7834,-6.784,-6.7951,-6.7921,-6.8054,-6.7993,-6.7935,-6.7988,-6.7987,-6.8086,-6.8099,-6.8132,-6.8253,-6.826,-6.8188,-6.8192,-6.8196,-6.8198,0,0,0,0,0,0,0,-6.7647,-6.7667,-6.7858,-6.7831,-6.7837,-6.7848,-6.7864,-6.7946,-6.8018,-6.794,-6.7943,-6.7961,-6.8088,-6.8124,-6.8136,-6.8262,-6.8187,-6.8195,-6.8199,-6.8203,-6.846,-6.8462,0,0,0,0,0,0,-6.763,-6.7659,-6.7853,-6.7863,-6.7742,-6.7854,-6.7873,-6.7917,-6.8017,-6.8031,-6.7962,-6.7962,-6.8111,-6.8126,-6.8141,-6.8244,-6.8196,-6.8203,-6.8208,-6.8458,-6.8461,-6.8463,0,0,0,0,0,0,-6.7625,-6.7647,-6.7847,-6.7762,-6.7788,-6.786,-6.791,-6.7921,-6.7956,-6.8034,-6.8047,-6.7985,-6.811,-6.813,-6.8219,-6.825,-6.8207,-6.8214,-6.8456,-6.8459,-6.8462,-6.8451,0,0,0,0,0,0,-6.7617,-6.7645,-6.7676,-6.7762,-6.7792,-6.7921,-6.7912,-6.7925,-6.797,-6.7971,-6.8058,-6.8071,-6.811,-6.8207,-6.8227,-6.8261,-6.8221,-6.8453,-6.8457,-6.8461,-6.8448,-6.8453,-6.8457,0,0,0,0,0,-6.7607,-6.7667,-6.7677,-6.77,-6.7832,-6.7922,-6.794,-6.7983,-6.7972,-6.8004,-6.8055,-6.8068,-6.8245,-6.8216,-6.8239,-6.8275,-6.8451,-6.8456,-6.8461,-6.8446,-6.8452,-6.8457,0,0,0,0,0,0,-6.7582,-6.7679,-6.7691,-6.778,-6.7843,-6.7928,-6.7969,-6.7987,-6.8054,-6.8053,-6.8105,-6.8124,-6.821,-6.8252,-6.8218,-6.8361,-6.8348,-6.8357,-6.8329,-6.8335,-6.8339,-6.8326,-6.8227,0,0,0,0,0,-6.7587,-6.7651,-6.7733,-6.7803,-6.7834,-6.7897,-6.7937,-6.7966,-6.8033,-6.8059,-6.8116,-6.8181,-6.8252,-6.8297,-6.8365,-6.8457,-6.8476,-6.8493,-6.8497,-6.85,-6.8507,-6.8559,-6.8567,-6.8478,-6.8478,-6.8478,0,0,-6.7597,-6.7658,-6.7695,-6.78,-6.7851,-6.7917,-6.7918,-6.7988,-6.8037,-6.807,-6.8156,-6.8201,-6.8278,-6.8368,-6.8411,-6.8406,-6.8537,-6.8506,-6.8508,-6.8513,-6.8564,-6.8572,-6.858,-6.8481,-6.848,-6.848,0,0,-6.7649,-6.7702,-6.7766,-6.7819,-6.7897,-6.7939,-6.7955,-6.8038,-6.8069,-6.8157,-6.8183,-6.8245,-6.8364,-6.8418,-6.8461,-6.8537,-6.8552,-6.8559,-6.8578,-6.8628,-6.8635,-6.8642,-6.8668,-6.8677,-6.8565,-6.8565,-6.8565,0,-6.7651,-6.775,-6.7797,-6.7866,-6.7911,-6.7945,-6.8011,-6.8061,-6.8158,-6.8189,-6.8183,-6.8335,-6.8389,-6.8492,-6.8511,-6.8546,-6.8565,-6.8546,-6.8631,-6.8637,-6.8644,-6.8669,-6.8679,-6.8566,-6.8565,-6.8565,-6.8565,0,-6.775,-6.7819,-6.7862,-6.7954,-6.8005,-6.8072,-6.8131,-6.8177,-6.8203,-6.8246,-6.8336,-6.8403,-6.8486,-6.8514,-6.8539,-6.8622,-6.8616,-6.862,-6.8607,-6.8652,-6.8676,-6.8687,-6.8566,-6.8566,-6.8566,-6.8566,0,0,-6.7785,-6.7905,-6.792,-6.7962,-6.8054,-6.8108,-6.8179,-6.826,-6.8298,-6.8366,-6.8426,-6.8528,-6.8533,-6.8582,-6.8614,-6.8659,-6.8714,-6.8657,-6.866,-6.8663,-6.8808,-6.8802,-6.8813,-6.8727,-6.8729,-6.873,-6.8801,0,-6.7846,-6.797,-6.8016,-6.8118,-6.8183,-6.8218,-6.8279,-6.8342,-6.8386,-6.8448,-6.8497,-6.8568,-6.8569,-6.8599,-6.8645,-6.8697,-6.8743,-6.8693,-6.8782,-6.8785,-6.8758,-6.8826,-6.882,-6.8883,-6.8811,-6.8813,-6.8814,0,-6.7932,-6.8,-6.8108,-6.8193,-6.8222,-6.8275,-6.8354,-6.8414,-6.8487,-6.8516,-6.8572,-6.8603,-6.8679,-6.8664,-6.877,-6.8735,-6.8776,-6.8808,-6.8811,-6.8818,-6.8799,-6.8832,-6.8904,-6.8913,-6.883,-6.8829,-6.8828,0,-6.7945,-6.8064,-6.8144,-6.818,-6.8281,-6.8318,-6.8362,-6.8435,-6.8481,-6.8551,-6.8582,-6.8661,-6.8703,-6.8764,-6.8816,-6.8801,-6.8917,-6.8907,-6.8943,-6.8941,-6.8962,-6.896,-6.9039,-6.8993,-6.8993,-6.8993,-6.8993,0,-6.8006,-6.807,-6.8151,-6.82,-6.8274,-6.8328,-6.8401,-6.8447,-6.8512,-6.8572,-6.8609,-6.8664,-6.873,-6.8795,-6.8837,-6.8918,-6.8938,-6.8963,-6.8973,-6.8958,-6.8954,-6.8982,-6.8978,-6.8996,-6.8995,-6.8994,-6.8994,0,-6.803,-6.8087,-6.8177,-6.8266,-6.829,-6.834,-6.8417,-6.8467,-6.8514,-6.8589,-6.861,-6.8683,-6.8762,-6.882,-6.8922,-6.895,-6.9037,-6.9048,-6.9011,-6.9015,-6.9047,-6.9042,-6.9144,-6.916,-6.9106,-6.9106,-6.9107,0,-6.8063,-6.8114,-6.8209,-6.8251,-6.8295,-6.8363,-6.8411,-6.8468,-6.8516,-6.8606,-6.8645,-6.8726,-6.8793,-6.8918,-6.898,-6.9059,-6.9071,-6.9102,-6.9083,-6.9067,-6.9069,-6.9064,-6.907,-6.9103,-6.9103,-6.9104,-6.9104,0,-6.8116,-6.8143,-6.821,-6.8287,-6.8343,-6.8408,-6.8472,-6.8506,-6.8575,-6.8628,-6.8708,-6.876,-6.8865,-6.8945,-6.9031,-6.9078,-6.9102,-6.911,-6.9122,-6.9106,-6.9081,-6.9093,-6.9015,-6.9106,-6.9106,-6.9106,-6.9106,-6.9106,-6.8145,-6.8192,-6.8266,-6.834,-6.8395,-6.8455,-6.8507,-6.856,-6.8628,-6.8716,-6.8747,-6.883,-6.8906,-6.9023,-6.9071,-6.9138,-6.9138,-6.9156,-6.916,-6.9162,-6.916,-6.9073,-6.9154,-6.9154,-6.9154,-6.9154,-6.9154,0,-6.8198,-6.8248,-6.8316,-6.8406,-6.8464,-6.8484,-6.8558,-6.8605,-6.8677,-6.8745,-6.8811,-6.8905,-6.8983,-6.9054,-6.9136,-6.9176,-6.919,-6.9196,-6.9192,-6.9202,-6.9157,-6.9137,-6.9183,-6.9183,-6.9183,-6.9183,-6.9183,-6.9183,-6.8232,-6.8312,-6.8348,-6.8456,-6.8507,-6.8587,-6.8628,-6.8684,-6.8739,-6.884,-6.8906,-6.8952,-6.9021,-6.9109,-6.9183,-6.9202,-6.923,-6.9233,-6.9254,-6.9209,-6.9205,-6.9202,-6.9183,-6.9239,-6.9239,-6.9294,-6.9294,-6.9295]},{"header":{"parameterUnit":"m.s-1","parameterCategory":1,"la1":30.2991,"la2":30.254,"lo1":-89.0895,"lo2":-89.0444,"dy":0.0017,"dx":0.0017,"nx":28,"ny":28,"refTime":"2024-03-25T21:00:00:Z","depth":0,"parameterNumber":3,"parameterNumberName":"V-component_of_WINDS"},"data":[0,0,0,0,0,0,0,0,0,0,0,0,0,0,0,0,0,0,0,0,0,0,0,0,0,0,0,0,0,0,0,0,0,0,0,0,0,0,0,0,0,0,0,0,0,0,0,0,0,0,0,0,0,0,0,0,0,0,3.6606,3.6605,0,3.6586,3.6585,3.6585,3.654,3.6539,3.6538,3.6537,3.6517,3.6517,3.6517,0,0,0,0,0,0,0,0,0,0,0,0,0,3.6609,3.6609,3.6606,3.6605,3.6605,3.6586,3.6585,3.6585,3.654,3.6539,3.6538,3.6537,3.6517,3.6517,3.6517,0,0,0,0,0,0,0,0,0,0,0,0,0,3.66,3.6609,3.6606,3.658,3.6578,3.6586,3.6585,3.6585,3.654,3.6539,3.6538,3.6536,3.6517,3.6517,3.6517,3.6548,0,0,3.6519,3.6519,0,0,0,0,0,0,0,0,3.6601,3.66,3.6584,3.6582,3.6579,3.6564,3.6579,3.6573,3.6541,3.6555,3.6537,3.6536,3.6534,3.6533,3.6532,3.6547,3.6546,3.6519,3.6519,3.6519,3.652,0,0,0,0,0,0,0,3.6601,3.6601,3.6598,3.6584,3.6581,3.6571,3.6569,3.6578,3.6552,3.6553,3.655,3.6548,3.6532,3.6531,3.6531,3.6546,3.6519,3.6519,3.652,3.652,3.659,3.6592,0,0,0,0,0,0,3.6605,3.6602,3.6598,3.6597,3.6587,3.6572,3.6569,3.657,3.6552,3.6548,3.655,3.6546,3.6531,3.6531,3.653,3.6568,3.6519,3.652,3.652,3.6589,3.6591,3.6592,0,0,0,0,0,0,3.6606,3.6606,3.6599,3.6598,3.6597,3.6574,3.6575,3.6571,3.657,3.6549,3.6544,3.6553,3.653,3.6529,3.6545,3.6567,3.652,3.6521,3.6587,3.6589,3.6592,3.6642,0,0,0,0,0,0,3.6606,3.6606,3.6616,3.6599,3.6597,3.6614,3.6577,3.6571,3.6571,3.6567,3.6551,3.6548,3.6529,3.6545,3.6546,3.6566,3.6521,3.6585,3.6588,3.6591,3.6638,3.6646,3.6652,0,0,0,0,0,3.6606,3.663,3.6617,3.6617,3.6609,3.6615,3.6614,3.6592,3.6573,3.6584,3.6571,3.6548,3.6564,3.6547,3.6547,3.6568,3.6583,3.6587,3.6591,3.6635,3.6644,3.6652,0,0,0,0,0,0,3.6649,3.6627,3.6612,3.6631,3.6625,3.6607,3.662,3.6601,3.6601,3.6597,3.657,3.6567,3.6587,3.6579,3.656,3.66,3.657,3.6574,3.6604,3.6612,3.6619,3.6621,3.6521,0,0,0,0,0,3.6661,3.6666,3.6647,3.6666,3.6664,3.6643,3.6644,3.6628,3.6621,3.6618,3.6606,3.6601,3.6605,3.6608,3.661,3.6637,3.6635,3.6652,3.6659,3.6665,3.6669,3.6687,3.6695,3.6604,3.6604,3.6604,0,0,3.6685,3.6674,3.6678,3.6674,3.6668,3.6676,3.6641,3.6649,3.6656,3.662,3.6635,3.6626,3.6618,3.6641,3.665,3.6635,3.6694,3.667,3.6675,3.6675,3.6692,3.67,3.6708,3.6607,3.6606,3.6606,0,0,3.6733,3.6724,3.6741,3.6736,3.6727,3.6714,3.6718,3.6704,3.6698,3.6712,3.6686,3.6694,3.67,3.6698,3.6697,3.675,3.673,3.6751,3.6788,3.6805,3.6812,3.6819,3.6841,3.6848,3.6755,3.6755,3.6755,0,3.6764,3.6775,3.6751,3.6764,3.6764,3.6733,3.6751,3.6747,3.674,3.6742,3.6725,3.6736,3.6728,3.6752,3.6765,3.6764,3.6771,3.6753,3.6813,3.6819,3.6825,3.6845,3.6853,3.6758,3.6757,3.6757,3.6757,0,3.6815,3.6823,3.6838,3.6833,3.6835,3.685,3.6831,3.6836,3.6821,3.6811,3.6828,3.6819,3.682,3.6825,3.6809,3.6847,3.6839,3.6818,3.6788,3.6837,3.6856,3.6863,3.6762,3.6761,3.676,3.6759,0,0,3.6888,3.6873,3.6879,3.6879,3.6869,3.6876,3.6891,3.6894,3.69,3.6897,3.6911,3.692,3.6902,3.6901,3.6886,3.6901,3.6948,3.6879,3.6878,3.6894,3.6994,3.7011,3.702,3.6935,3.6936,3.6937,3.6995,0,3.6935,3.696,3.6942,3.697,3.698,3.6953,3.6966,3.6963,3.6955,3.6962,3.6952,3.6961,3.6935,3.6935,3.6949,3.6939,3.6968,3.6934,3.6949,3.695,3.6954,3.7029,3.7046,3.7102,3.7002,3.7003,3.7004,0,3.6993,3.6996,3.7026,3.7019,3.7022,3.7034,3.7038,3.7045,3.7042,3.7035,3.7037,3.7018,3.7035,3.7006,3.703,3.7008,3.7013,3.701,3.7012,3.7013,3.6981,3.7036,3.7118,3.7128,3.7015,3.7014,3.7014,0,3.7048,3.7057,3.7078,3.7078,3.7069,3.7079,3.7076,3.7072,3.7077,3.708,3.7083,3.7088,3.7091,3.7096,3.7081,3.706,3.7109,3.7077,3.7105,3.7106,3.7117,3.7117,3.7204,3.7117,3.7117,3.7117,3.7117,0,3.7104,3.7124,3.7103,3.7115,3.7139,3.7119,3.7142,3.7136,3.7134,3.7147,3.7123,3.7135,3.7113,3.7125,3.7113,3.7137,3.7138,3.7134,3.7131,3.7137,3.7138,3.7141,3.7138,3.7119,3.7119,3.7118,3.7118,0,3.7168,3.7154,3.7175,3.7166,3.7165,3.7183,3.7176,3.7188,3.7179,3.7196,3.7199,3.7185,3.7197,3.7183,3.7193,3.7185,3.7219,3.7209,3.722,3.7218,3.7249,3.7247,3.7343,3.7356,3.7258,3.7259,3.726,0,3.7205,3.7221,3.7215,3.7222,3.7221,3.7232,3.7238,3.7219,3.7226,3.7227,3.724,3.7251,3.7258,3.728,3.7271,3.728,3.7272,3.7305,3.7273,3.728,3.7276,3.7276,3.7279,3.7312,3.7313,3.7314,3.7315,0,3.7275,3.7268,3.7276,3.7284,3.7292,3.7296,3.7299,3.7307,3.7288,3.7297,3.7311,3.7317,3.7329,3.7341,3.7349,3.7347,3.7329,3.7325,3.7333,3.734,3.7347,3.7347,3.7241,3.7323,3.7322,3.7321,3.7321,3.7321,3.7328,3.7343,3.7342,3.7353,3.7354,3.7359,3.7372,3.7366,3.7376,3.7386,3.7374,3.7392,3.7393,3.7401,3.7402,3.7416,3.7402,3.7412,3.7415,3.7418,3.7425,3.7344,3.7417,3.7416,3.7416,3.7416,3.7416,0,3.7399,3.7399,3.7409,3.7416,3.7426,3.7409,3.7412,3.7422,3.7438,3.744,3.7449,3.7467,3.7479,3.7473,3.7484,3.7497,3.749,3.7501,3.7501,3.7502,3.7435,3.7428,3.7508,3.7508,3.7508,3.7507,3.7507,3.7507,3.7438,3.7462,3.7456,3.7483,3.7481,3.7499,3.7503,3.7508,3.7511,3.7531,3.7542,3.7538,3.7538,3.755,3.7562,3.756,3.7567,3.7582,3.7577,3.7515,3.7506,3.7497,3.7492,3.7583,3.7583,3.7644,3.7644,3.7645]}]]